DW7177 Weather Reports


time (UTC)temp
F
wind
direction
speed
knots
gust
knots
rain 1hr
in
rain 24hr
in
rain mn
in
humidity
%
barometer
mb
20260506072803 44 255 0.0 1.7 0.00 0.00 0.00 73 1016.3
20260506072403 44 255 0.0 2.6 0.00 0.00 0.00 74 1016.3
20260506072004 44 255 0.0 3.5 0.00 0.00 0.00 74 1016.4
20260506071603 43 255 0.0 3.5 0.00 0.00 0.00 76 1016.4
20260506071203 43 255 0.0 3.5 0.00 0.00 0.00 76 1016.4
20260506070803 42 255 0.0 1.7 0.00 0.00 0.00 78 1016.4
20260506070403 42 255 0.0 4.3 0.00 0.00 0.00 78 1016.4
20260506062403 39 254 0.0 2.6 0.00 0.00 0.00 83 1016.1
20260506062003 38 254 0.0 2.6 0.00 0.00 0.00 84 1016.1
20260506061603 38 254 0.0 3.5 0.00 0.00 0.00 84 1016.1
20260506061203 38 254 0.0 3.5 0.00 0.00 0.00 85 1016.0
20260506060803 37 254 0.0 1.7 0.00 0.00 0.00 86 1016.1
20260506060403 37 254 0.0 1.7 0.00 0.00 0.00 86 1016.0
20260506051203 34 254 0.0 0.9 0.00 0.00 0.00 88 1016.1
20260506050803 34 254 0.0 0.9 0.00 0.00 0.00 88 1016.1
20260506050403 34 254 0.0 0.9 0.00 0.00 0.00 88 1016.1
20260506044803 34 254 0.0 0.9 0.00 0.00 0.00 88 1016.1
20260506044403 34 254 0.0 0.9 0.00 0.00 0.00 88 1016.0
20260506044218 34 254 0.0 0.9 0.00 0.00 0.00 88 1016.0
20260506043603 34 254 0.0 1.7 0.00 0.00 0.00 87 1016.0
20260506043203 34 254 0.0 1.7 0.00 0.00 0.00 87 1016.0
20260506043017 34 254 0.0 1.7 0.00 0.00 0.00 87 1016.1
20260506042403 34 254 0.0 1.7 0.00 0.00 0.00 87 1016.1
20260506042218 34 254 0.0 1.7 0.00 0.00 0.00 87 1016.1
20260506041603 34 254 0.0 2.6 0.00 0.00 0.00 87 1016.0
20260506041203 34 254 0.9 3.5 0.00 0.00 0.00 87 1016.0
20260506041017 34 254 0.9 3.5 0.00 0.00 0.00 87 1015.9
20260506040403 34 254 0.0 3.5 0.00 0.00 0.00 88 1015.9
20260506040003 34 254 0.0 2.6 0.00 0.00 0.00 88 1016.0
20260506035603 34 254 0.0 1.7 0.00 0.00 0.00 88 1016.0
20260506035203 34 254 0.0 0.9 0.00 0.00 0.00 88 1016.1
20260506034803 34 254 0.0 0.9 0.00 0.00 0.00 88 1016.1
20260506034403 35 254 0.0 0.9 0.00 0.00 0.00 87 1016.1
20260506034003 35 254 0.0 0.9 0.00 0.00 0.00 87 1016.1
20260506033603 35 254 0.0 0.9 0.00 0.00 0.00 87 1016.1
20260506033203 35 254 0.0 0.9 0.00 0.00 0.00 87 1016.1
20260506032803 35 254 0.0 0.9 0.00 0.00 0.00 87 1016.1
20260506032403 35 254 0.0 0.9 0.00 0.00 0.00 87 1016.1
20260506032003 35 254 0.0 0.9 0.00 0.00 0.00 87 1016.2
20260506031818 35 254 0.0 0.9 0.00 0.00 0.00 87 1016.2
20260506031203 35 254 0.0 1.7 0.00 0.00 0.00 88 1016.2
20260506030803 35 254 0.0 1.7 0.00 0.00 0.00 88 1016.2
20260506030403 35 254 0.0 1.7 0.00 0.00 0.00 88 1016.2
20260506030003 35 254 0.0 0.9 0.00 0.00 0.00 88 1016.2
20260506025603 35 254 0.0 0.9 0.00 0.00 0.00 88 1016.1
20260506025203 35 254 0.0 0.9 0.00 0.00 0.00 88 1016.1
20260506025017 35 254 0.0 0.9 0.00 0.00 0.00 88 1016.2
20260506024617 35 254 0.0 0.9 0.00 0.00 0.00 88 1016.1
20260506024003 35 254 0.0 1.7 0.00 0.00 0.00 88 1016.1
20260506023603 35 254 0.0 1.7 0.00 0.00 0.00 89 1016.2
20260506023203 35 254 0.0 0.9 0.00 0.00 0.00 89 1016.2
20260506022803 35 0 0.0 0.0 0.00 0.00 0.00 89 1016.2
20260506022403 35 254 0.0 0.9 0.00 0.00 0.00 89 1016.3
20260506022003 35 254 0.0 0.9 0.00 0.00 0.00 89 1016.2
20260506021603 35 254 0.0 0.9 0.00 0.00 0.00 89 1016.3
20260506021203 35 254 0.0 0.9 0.00 0.00 0.00 89 1016.3
20260506021017 35 254 0.0 0.9 0.00 0.00 0.00 89 1016.3
20260506020403 35 254 0.0 0.9 0.00 0.00 0.00 89 1016.2
20260506020217 35 254 0.0 0.9 0.00 0.00 0.00 90 1016.2
20260506015818 35 254 0.0 0.9 0.00 0.00 0.00 90 1016.3
20260506015203 35 0 0.0 0.0 0.00 0.00 0.00 90 1016.3
20260506014803 35 254 0.0 0.9 0.00 0.00 0.00 89 1016.3
20260506014403 35 254 0.0 0.9 0.00 0.00 0.00 89 1016.3
20260506014217 35 254 0.0 0.9 0.00 0.00 0.00 89 1016.3
20260506013603 35 254 0.0 0.9 0.00 0.00 0.00 89 1016.3
20260506013203 35 254 0.0 0.9 0.00 0.00 0.00 89 1016.3
20260506012803 35 254 0.0 0.9 0.00 0.00 0.00 89 1016.3
20260506012403 35 254 0.0 0.9 0.00 0.00 0.00 89 1016.3
20260506012003 35 254 0.0 0.9 0.00 0.00 0.00 89 1016.3
20260506011817 35 254 0.0 0.9 0.00 0.00 0.00 89 1016.3
20260506011418 35 254 0.0 1.7 0.00 0.00 0.00 89 1016.3
20260506010803 36 254 0.0 1.7 0.00 0.00 0.00 89 1016.4
20260506010403 36 254 0.0 0.9 0.00 0.00 0.00 89 1016.3
20260506010003 36 254 0.0 0.9 0.00 0.00 0.00 89 1016.3
20260506005817 36 254 0.0 0.9 0.00 0.00 0.00 89 1016.3
20260506005203 36 254 0.0 0.9 0.00 0.00 0.00 88 1016.4
20260506005018 36 254 0.0 0.9 0.00 0.00 0.00 88 1016.4
20260506004403 36 254 0.0 0.9 0.00 0.00 0.00 88 1016.4
20260506004003 36 254 0.0 0.9 0.00 0.00 0.00 88 1016.4
20260506003603 36 254 0.0 0.9 0.00 0.00 0.00 88 1016.4
20260506003418 36 254 0.0 0.9 0.00 0.00 0.00 88 1016.4
20260506003018 36 254 0.0 0.9 0.00 0.00 0.00 87 1016.4
20260506002403 37 254 0.0 0.9 0.00 0.00 0.00 86 1016.4
20260506002217 37 254 0.0 0.9 0.00 0.00 0.00 86 1016.5
20260506001603 37 254 0.0 0.9 0.00 0.00 0.00 85 1016.4
20260506001203 38 254 0.0 0.9 0.00 0.00 0.00 83 1016.4
20260506000803 38 254 0.0 0.9 0.00 0.00 0.00 83 1016.4
20260506000618 38 254 0.0 0.9 0.00 0.00 0.00 83 1016.4
20260506000003 38 254 0.0 0.9 0.00 0.00 0.00 83 1016.4
20260505235817 38 254 0.0 0.9 0.00 0.00 0.00 83 1016.5
20260505235203 39 254 0.0 0.9 0.00 0.00 0.00 83 1016.5
20260505234803 39 254 0.0 0.9 0.00 0.00 0.00 83 1016.5
20260505234403 39 254 0.0 0.9 0.00 0.00 0.00 83 1016.5
20260505234003 39 254 0.0 0.9 0.00 0.00 0.00 83 1016.6
20260505233603 39 254 0.0 0.9 0.00 0.00 0.00 84 1016.6
20260505233203 39 254 0.0 0.9 0.00 0.00 0.00 84 1016.6
20260505233017 39 254 0.0 0.9 0.00 0.00 0.00 84 1016.6
20260505232403 39 254 0.0 0.9 0.00 0.00 0.00 84 1016.6
20260505232003 39 254 0.0 0.9 0.00 0.00 0.00 85 1016.7
20260505231603 39 254 0.0 1.7 0.00 0.00 0.00 85 1016.7
20260505231203 39 254 0.0 1.7 0.00 0.00 0.00 85 1016.8
20260505230803 39 254 0.0 0.9 0.00 0.00 0.00 85 1016.8
20260505230403 39 254 0.0 1.7 0.00 0.00 0.00 86 1016.7
20260505230004 39 254 0.0 1.7 0.00 0.00 0.00 86 1016.8
20260505225603 39 254 0.0 1.7 0.00 0.00 0.00 87 1016.8
20260505225203 39 254 0.0 0.9 0.00 0.00 0.00 87 1016.8
20260505224803 39 254 0.0 0.9 0.00 0.00 0.00 88 1016.8
20260505224403 39 254 0.0 0.9 0.00 0.00 0.00 88 1016.8
20260505224003 39 254 0.0 0.9 0.00 0.00 0.00 88 1016.8
20260505223603 39 254 0.0 1.7 0.00 0.00 0.00 88 1016.8
20260505223203 39 254 0.0 1.7 0.00 0.00 0.00 88 1016.8
20260505222803 39 254 0.0 1.7 0.00 0.00 0.00 88 1016.8
20260505222618 39 254 0.0 1.7 0.00 0.00 0.00 88 1016.8
20260505222003 40 254 0.0 0.9 0.00 0.00 0.00 87 1016.8
20260505221604 40 254 0.0 0.9 0.00 0.00 0.00 87 1016.7
20260505221203 40 254 0.0 0.9 0.00 0.00 0.00 87 1016.7
20260505221017 40 254 0.0 0.9 0.00 0.00 0.00 87 1016.7
20260505220403 40 0 0.0 0.0 0.00 0.00 0.00 86 1016.7
20260505220218 40 0 0.0 0.0 0.00 0.00 0.00 86 1016.8
20260505215603 40 254 0.0 0.9 0.00 0.00 0.00 86 1016.8
20260505215416 40 254 0.0 0.9 0.00 0.00 0.00 86 1016.8
20260505215017 40 254 0.0 0.9 0.00 0.00 0.00 86 1016.8
20260505214403 41 254 0.0 0.9 0.00 0.00 0.00 85 1016.8
20260505214003 41 254 0.0 0.9 0.00 0.00 0.00 85 1016.8
20260505213603 41 254 0.0 0.9 0.00 0.00 0.00 84 1016.7
20260505213418 41 0 0.0 0.0 0.00 0.00 0.00 84 1016.8
20260505212803 41 0 0.0 0.0 0.00 0.00 0.00 84 1016.8
20260505212403 41 0 0.0 0.0 0.00 0.00 0.00 84 1016.8
20260505212003 41 0 0.0 0.0 0.00 0.00 0.00 84 1016.9
20260505211603 41 255 0.0 0.9 0.00 0.00 0.00 84 1016.9
20260505211203 41 255 0.0 0.9 0.00 0.00 0.00 83 1016.9
20260505211017 42 255 0.0 0.9 0.00 0.00 0.00 83 1016.9
20260505210403 42 0 0.0 0.0 0.00 0.00 0.00 82 1016.9
20260505210217 42 0 0.0 0.0 0.00 0.00 0.00 82 1016.8
20260505205603 42 0 0.0 0.0 0.00 0.00 0.00 82 1016.9
20260505205205 42 0 0.0 0.0 0.00 0.00 0.00 82 1016.9
20260505204803 43 0 0.0 0.0 0.00 0.00 0.00 81 1016.9
20260505204403 43 0 0.0 0.0 0.00 0.00 0.00 81 1016.9
20260505204003 43 254 0.0 2.6 0.00 0.00 0.00 81 1016.9
20260505203603 43 254 0.0 2.6 0.00 0.00 0.00 81 1016.8
20260505203203 43 0 0.0 0.0 0.00 0.00 0.00 81 1016.8
20260505202803 44 0 0.0 0.0 0.00 0.00 0.00 81 1016.8
20260505202403 44 254 0.0 1.7 0.00 0.00 0.00 81 1016.8
20260505202003 44 254 0.0 1.7 0.00 0.00 0.00 81 1016.8
20260505201603 44 0 0.0 0.0 0.00 0.00 0.00 80 1016.8
20260505201418 44 254 0.0 0.9 0.00 0.00 0.00 80 1016.8
20260505200803 44 254 0.0 0.9 0.00 0.00 0.00 80 1016.8
20260505200403 44 254 0.0 3.5 0.00 0.00 0.00 81 1016.8
20260505200003 44 254 0.0 3.5 0.00 0.00 0.00 80 1016.8
20260505195603 44 254 0.0 3.5 0.00 0.00 0.00 81 1016.6
20260505195203 44 254 0.0 3.5 0.00 0.00 0.00 81 1016.7
20260505194803 44 254 0.0 3.5 0.00 0.00 0.00 80 1016.6
20260505194403 44 254 0.0 2.6 0.00 0.00 0.00 80 1016.6
20260505194003 44 254 0.0 2.6 0.00 0.00 0.00 80 1016.6
20260505193603 44 254 0.0 2.6 0.00 0.00 0.00 80 1016.7
20260505193203 45 254 0.0 1.7 0.00 0.00 0.00 80 1016.6
20260505192803 45 254 0.0 2.6 0.00 0.00 0.00 80 1016.6
20260505192618 45 254 0.0 2.6 0.00 0.00 0.00 80 1016.6
20260505192003 45 254 0.0 3.5 0.00 0.00 0.00 80 1016.5
20260505191603 45 254 0.0 3.5 0.00 0.00 0.00 79 1016.6
20260505191203 45 254 0.0 3.5 0.00 0.00 0.00 79 1016.5
20260505191018 45 254 0.0 2.6 0.00 0.00 0.00 79 1016.5
20260505190618 45 254 0.0 2.6 0.00 0.00 0.00 79 1016.5
20260505190217 45 254 0.0 2.6 0.00 0.00 0.00 79 1016.5
20260505185603 45 254 0.0 2.6 0.00 0.00 0.00 80 1016.3
20260505185203 45 254 0.0 1.7 0.00 0.00 0.00 80 1016.3
20260505184803 45 254 0.0 1.7 0.00 0.00 0.00 80 1016.3
20260505184403 45 254 0.0 3.5 0.00 0.00 0.00 80 1016.3
20260505184217 45 254 0.0 3.5 0.00 0.00 0.00 79 1016.3
20260505183817 46 254 0.0 3.5 0.00 0.00 0.00 78 1016.2
20260505183203 46 255 0.0 2.6 0.00 0.00 0.00 78 1016.2
20260505183018 46 255 0.0 2.6 0.00 0.00 0.00 78 1016.3
20260505182403 46 255 0.9 4.3 0.00 0.00 0.00 77 1016.2
20260505182218 46 254 0.9 4.3 0.00 0.00 0.00 77 1016.2
20260505181603 46 254 0.9 4.3 0.00 0.00 0.00 76 1016.2
20260505181203 46 254 0.9 3.5 0.00 0.00 0.00 77 1016.2
20260505180803 46 254 0.9 7.0 0.00 0.00 0.00 76 1016.2
20260505180403 46 254 0.9 7.0 0.00 0.00 0.00 76 1016.1
20260505180218 46 254 0.9 7.0 0.00 0.00 0.00 76 1016.1
20260505175817 46 254 0.9 7.0 0.00 0.00 0.00 76 1016.2
20260505175203 46 254 0.9 5.2 0.00 0.00 0.00 75 1016.1
20260505174803 46 254 0.9 4.3 0.00 0.00 0.00 74 1016.2
20260505174618 46 254 0.9 3.5 0.00 0.00 0.00 74 1016.2
20260505174218 46 254 0.9 3.5 0.00 0.00 0.00 74 1016.1
20260505173817 46 254 0.9 3.5 0.00 0.00 0.00 74 1016.1
20260505173417 46 254 0.9 2.6 0.00 0.00 0.00 75 1016.1
20260505172803 46 254 0.9 3.5 0.00 0.00 0.00 75 1016.1
20260505172403 46 254 0.9 3.5 0.00 0.00 0.00 75 1016.2
20260505172218 46 254 0.9 3.5 0.00 0.00 0.00 75 1016.2
20260505171603 46 255 0.9 3.5 0.00 0.00 0.00 75 1016.3
20260505171203 47 255 0.9 5.2 0.00 0.00 0.00 75 1016.2
20260505170803 47 255 0.9 5.2 0.00 0.00 0.00 74 1016.1
20260505170403 47 255 0.9 5.2 0.00 0.00 0.00 74 1016.1
20260505170003 47 255 0.9 4.3 0.00 0.00 0.00 74 1016.2
20260505165818 47 254 0.9 4.3 0.00 0.00 0.00 74 1016.1
20260505165203 47 254 0.9 3.5 0.00 0.00 0.00 73 1016.2
20260505164803 48 254 0.9 4.3 0.00 0.00 0.00 74 1016.2
20260505164403 48 254 0.9 4.3 0.00 0.00 0.00 76 1016.2
20260505164003 47 254 0.9 4.3 0.00 0.00 0.00 75 1016.0
20260505163818 47 254 0.9 4.3 0.00 0.00 0.00 74 1016.1
20260505163203 48 254 0.9 4.3 0.00 0.00 0.00 74 1016.1
20260505162803 48 254 0.9 4.3 0.00 0.00 0.00 74 1016.1
20260505162403 48 254 0.9 4.3 0.00 0.00 0.00 74 1016.0
20260505162003 48 254 0.9 4.3 0.00 0.00 0.00 74 1015.9
20260505161603 48 253 0.9 6.1 0.00 0.00 0.00 75 1015.9
20260505161418 48 253 0.9 6.1 0.00 0.00 0.00 74 1015.9
20260505160803 48 253 0.9 4.3 0.00 0.00 0.00 73 1015.8
20260505160403 48 253 0.9 4.3 0.00 0.00 0.00 73 1015.7
20260505152803 49 252 1.7 5.2 0.00 0.00 0.00 72 1015.7
20260505152403 49 252 1.7 5.2 0.00 0.00 0.00 71 1015.7
20260505152003 50 252 0.9 5.2 0.00 0.00 0.00 71 1015.8
20260505151603 50 252 0.9 5.2 0.00 0.00 0.00 70 1015.6
20260505151203 50 252 0.9 5.2 0.00 0.00 0.00 71 1015.6
20260505150803 50 252 0.9 5.2 0.00 0.00 0.00 71 1015.6
20260505150617 50 252 0.9 5.2 0.00 0.00 0.00 69 1015.5
20260505150217 51 252 0.9 4.3 0.00 0.00 0.00 72 1015.4
20260505140403 49 251 1.7 5.2 0.00 0.00 0.00 77 1015.3
20260505125017 51 249 0.9 4.3 0.00 0.00 0.00 66 1015.0
20260505124618 52 249 0.9 4.3 0.00 0.00 0.00 69 1015.0
20260505124003 51 250 0.9 3.5 0.00 0.00 0.00 70 1015.0
20260505123603 51 249 0.9 4.3 0.00 0.00 0.00 72 1015.0
20260505123417 51 249 0.9 4.3 0.00 0.00 0.00 72 1015.0
20260505123017 51 249 0.9 4.3 0.00 0.00 0.00 73 1015.0
20260505122403 51 249 0.9 6.1 0.00 0.00 0.00 73 1014.9
20260505122003 51 249 0.9 6.1 0.00 0.00 0.00 73 1014.8
20260505121603 51 250 0.9 6.1 0.00 0.00 0.00 74 1014.8
20260505121203 50 250 0.9 4.3 0.00 0.00 0.00 74 1014.8
20260505120803 50 250 0.9 4.3 0.00 0.00 0.00 74 1014.8
20260505120403 50 250 0.9 4.3 0.00 0.00 0.00 75 1014.8
20260505120218 50 250 0.9 4.3 0.00 0.00 0.00 75 1014.8
20260505115818 49 250 0.9 4.3 0.00 0.00 0.00 76 1014.8
20260505115203 49 250 0.9 4.3 0.00 0.00 0.00 75 1014.8
20260505114803 50 250 0.9 3.5 0.00 0.00 0.00 75 1014.8
20260505114617 50 250 0.0 3.5 0.00 0.00 0.00 77 1014.8
20260505114003 50 250 0.9 3.5 0.00 0.00 0.00 77 1014.6
20260505113603 50 250 0.9 3.5 0.00 0.00 0.00 77 1014.6
20260505113203 50 250 0.9 3.5 0.00 0.00 0.00 77 1014.5
20260505112803 50 250 0.0 3.5 0.00 0.00 0.00 78 1014.6
20260505112403 50 250 0.0 2.6 0.00 0.00 0.00 79 1014.6
20260505112003 50 250 0.0 1.7 0.00 0.00 0.00 79 1014.6
20260505111818 50 250 0.0 2.6 0.00 0.00 0.00 79 1014.6
20260505111203 50 250 0.9 3.5 0.00 0.00 0.00 82 1014.6
20260505110803 49 250 0.9 3.5 0.00 0.00 0.00 83 1014.6
20260505110617 49 250 0.9 3.5 0.00 0.00 0.00 84 1014.6
20260505102003 50 250 0.0 2.6 0.00 0.00 0.00 84 1014.4
20260505101818 50 250 0.0 2.6 0.00 0.00 0.00 84 1014.5
20260505101203 50 250 0.0 2.6 0.00 0.00 0.00 84 1014.5
20260505100803 50 250 0.0 2.6 0.00 0.00 0.00 85 1014.4
20260505100403 50 250 0.9 2.6 0.00 0.00 0.00 83 1014.4
20260505100003 50 250 0.9 5.2 0.00 0.00 0.00 83 1014.4
20260505095603 50 250 0.9 5.2 0.00 0.00 0.00 81 1014.4
20260505095203 50 250 0.9 5.2 0.00 0.00 0.00 80 1014.3
20260505094803 51 250 0.0 3.5 0.00 0.00 0.00 79 1014.2
20260505094403 51 250 0.0 3.5 0.00 0.00 0.00 78 1014.2
20260505094003 51 250 0.0 4.3 0.00 0.00 0.00 80 1014.2
20260505093603 51 250 0.0 4.3 0.00 0.00 0.00 77 1014.2
20260505093203 51 250 0.0 4.3 0.00 0.00 0.00 78 1014.2
20260505092803 51 250 0.9 3.5 0.00 0.00 0.00 77 1014.1
20260505092403 51 250 0.0 3.5 0.00 0.00 0.00 76 1014.2
20260505092003 51 250 0.0 3.5 0.00 0.00 0.00 76 1014.1
20260505091603 51 250 0.0 1.7 0.00 0.00 0.00 77 1014.1
20260505091203 51 250 0.0 2.6 0.00 0.00 0.00 77 1014.1
20260505090803 51 250 0.9 3.5 0.00 0.00 0.00 77 1014.1
20260505090403 50 250 0.9 5.2 0.00 0.00 0.00 77 1014.1
20260505090003 50 250 0.9 5.2 0.00 0.00 0.00 77 1014.1
20260505085603 50 250 0.9 5.2 0.00 0.00 0.00 76 1014.1
20260505085418 50 250 0.9 5.2 0.00 0.00 0.00 76 1014.1
20260505085018 50 250 0.9 5.2 0.00 0.00 0.00 76 1014.1
20260505084403 50 250 0.9 4.3 0.00 0.00 0.00 76 1014.1
20260505084003 50 250 0.9 4.3 0.00 0.00 0.00 76 1014.1
20260505083603 50 250 0.0 3.5 0.00 0.00 0.00 77 1014.1
20260505083203 50 250 0.9 3.5 0.00 0.00 0.00 76 1014.1
20260505083018 50 250 0.9 5.2 0.00 0.00 0.00 77 1014.1
20260505082403 50 250 0.9 5.2 0.00 0.00 0.00 77 1014.1
20260505082003 50 250 0.9 4.3 0.00 0.00 0.00 77 1014.1
20260505081603 50 250 0.9 3.5 0.00 0.00 0.00 77 1014.0
20260505081203 50 250 0.9 3.5 0.00 0.00 0.00 78 1014.0
20260505080803 49 250 0.9 3.5 0.00 0.00 0.00 78 1014.0
20260505080403 49 250 1.7 7.0 0.00 0.00 0.00 78 1014.0
20260505080003 49 250 1.7 7.0 0.00 0.00 0.00 79 1014.0
20260505075603 49 250 1.7 7.0 0.00 0.00 0.00 78 1013.9
20260505075203 49 250 0.9 5.2 0.00 0.00 0.00 79 1014.0
20260505074803 49 250 0.9 7.0 0.00 0.00 0.00 79 1014.0
20260505074403 49 250 1.7 7.0 0.00 0.00 0.00 79 1013.9
20260505074003 49 250 1.7 7.0 0.00 0.00 0.00 79 1013.9
20260505073817 49 250 1.7 7.0 0.00 0.00 0.00 79 1013.9
20260505073203 49 250 0.9 3.5 0.00 0.00 0.00 79 1013.9